DW5164 Weather Reports


time (UTC)temp
C
wind
direction
speed
KPH
gust
KPH
rain 1hr
cm
rain 24hr
cm
rain mn
cm
humidity
%
barometer
mb
20260902152923 32 265 8.0 12.9 0.00 0.00 0.00 47 1014.7
20260902151924 32 264 3.2 11.3 0.00 0.00 0.00 49 1014.7
20260902151423 31 348 1.6 11.3 0.00 0.00 0.00 52 1014.8
20260902150926 31 1 3.2 4.8 0.00 0.00 0.00 50 1014.8
20260902145423 32 272 4.8 11.3 0.00 0.00 0.00 49 1014.8
20260902144924 32 281 9.7 14.5 0.00 0.00 0.00 48 1014.9
20260902143925 31 279 9.7 16.1 0.00 0.00 0.00 51 1015.0
20260902143423 32 270 6.4 14.5 0.00 0.00 0.00 51 1015.0
20260902142927 31 236 6.4 11.3 0.00 0.00 0.00 51 1015.1
20260902141923 31 246 1.6 4.8 0.00 0.00 0.00 52 1015.2
20260902141441 32 261 8.0 14.5 0.00 0.00 0.00 52 1015.2
20260902140924 31 236 9.7 14.5 0.00 0.00 0.00 52 1015.2
20260902135926 31 247 9.7 16.1 0.00 0.00 0.00 51 1015.4
20260902135423 32 46 1.6 4.8 0.00 0.00 0.00 53 1015.4
20260902134923 32 293 3.2 4.8 0.00 0.00 0.00 52 1015.4
20260902133924 32 205 4.8 11.3 0.00 0.00 0.00 52 1015.6
20260902133423 31 253 4.8 9.7 0.00 0.00 0.00 53 1015.6
20260902132925 32 211 8.0 12.9 0.00 0.00 0.00 53 1015.7
20260902131424 31 302 1.6 4.8 0.00 0.00 0.00 54 1015.9
20260902130924 31 333 8.0 11.3 0.00 0.00 0.00 55 1015.9
20260902130423 30 136 3.2 9.7 0.00 0.00 0.00 57 1016.0
20260902125923 30 77 4.8 8.0 0.00 0.00 0.00 57 1016.0
20260902124925 30 96 4.8 8.0 0.00 0.00 0.00 59 1016.1
20260902124424 30 126 1.6 8.0 0.00 0.00 0.00 58 1016.2
20260902122924 30 93 8.0 11.3 0.00 0.00 0.00 58 1016.3
20260902122424 30 107 6.4 12.9 0.00 0.00 0.00 59 1016.3
20260902121924 30 33 6.4 16.1 0.00 0.00 0.00 57 1016.4
20260902120925 30 81 6.4 14.5 0.00 0.00 0.00 58 1016.5
20260902120423 30 16 3.2 4.8 0.00 0.00 0.00 58 1016.5
20260902115423 30 78 4.8 9.7 0.00 0.00 0.00 56 1016.7
20260902114423 29 60 3.2 4.8 0.00 0.00 0.00 57 1016.8
20260902113935 29 108 4.8 8.0 0.00 0.00 0.00 60 1016.9
20260902113427 28 78 4.8 9.7 0.00 0.00 0.00 59 1016.9
20260902112925 29 74 4.8 8.0 0.00 0.00 0.00 60 1016.9
20260902112424 28 101 3.2 11.3 0.00 0.00 0.00 59 1017.0
20260902111927 29 133 3.2 11.3 0.00 0.00 0.00 57 1017.0
20260902111440 29 115 8.0 12.9 0.00 0.00 0.00 57 1017.1
20260902105922 29 105 4.8 11.3 0.00 0.00 0.00 57 1017.3
20260902105422 28 103 4.8 8.0 0.00 0.00 0.00 53 1017.4
20260902104922 28 97 3.2 4.8 0.00 0.00 0.00 54 1017.4
20260902104423 28 153 3.2 9.7 0.00 0.00 0.00 53 1017.5
20260902103923 30 92 4.8 14.5 0.00 0.00 0.00 52 1017.5
20260902103423 29 90 3.2 8.0 0.00 0.00 0.00 54 1017.6
20260902102923 29 331 3.2 4.8 0.00 0.00 0.00 50 1017.6
20260902101924 28 94 4.8 11.3 0.00 0.00 0.00 56 1017.7
20260902100923 28 100 4.8 8.0 0.00 0.00 0.00 58 1017.8
20260902095923 28 90 3.2 8.0 0.00 0.00 0.00 59 1017.9
20260902095423 28 114 4.8 8.0 0.00 0.00 0.00 61 1017.9
20260902094923 28 182 3.2 4.8 0.00 0.00 0.00 60 1018.0
20260902094423 28 131 1.6 11.3 0.00 0.00 0.00 62 1018.0
20260902093923 28 110 3.2 4.8 0.00 0.00 0.00 63 1018.0
20260902092923 27 130 1.6 4.8 0.00 0.00 0.00 65 1018.1
20260902091423 27 141 4.8 8.0 0.00 0.00 0.00 64 1018.0
20260902090422 27 161 1.6 4.8 0.00 0.00 0.00 64 1018.0
20260902085923 27 49 3.2 4.8 0.00 0.00 0.00 65 1018.0
20260902085422 27 127 1.6 4.8 0.00 0.00 0.00 65 1018.1
20260902084922 27 164 4.8 12.9 0.00 0.00 0.00 65 1018.1
20260902084422 27 96 1.6 4.8 0.00 0.00 0.00 68 1018.1
20260902083922 27 98 4.8 4.8 0.00 0.00 0.00 67 1018.1
20260902083422 27 132 3.2 8.0 0.00 0.00 0.00 65 1018.1
20260902082430 26 107 3.2 8.0 0.00 0.00 0.00 66 1018.0
20260902081923 27 136 1.6 8.0 0.00 0.00 0.00 66 1018.1
20260902080922 26 58 0.0 4.8 0.00 0.00 0.00 63 1017.9
20260902080423 26 58 3.2 8.0 0.00 0.00 0.00 64 1017.9
20260902075922 26 59 3.2 9.7 0.00 0.00 0.00 64 1017.9
20260902075424 26 62 3.2 4.8 0.00 0.00 0.00 70 1017.9
20260902074926 26 15 1.6 4.8 0.00 0.00 0.00 71 1017.8
20260902073923 26 0 1.6 4.8 0.00 0.00 0.00 74 1017.8
20260902073422 25 22 1.6 4.8 0.00 0.00 0.00 77 1017.7
20260902072922 25 9 1.6 4.8 0.00 0.00 0.00 79 1017.8
20260902072425 25 325 1.6 4.8 0.00 0.00 0.00 79 1017.9
20260902071922 24 289 3.2 4.8 0.00 0.00 0.00 79 1017.8
20260902071422 24 276 1.6 3.2 0.00 0.00 0.00 80 1017.8
20260902070923 23 301 1.6 3.2 0.00 0.00 0.00 80 1017.7
20260902070422 23 301 1.6 4.8 0.00 0.00 0.00 81 1017.7
20260902065922 23 288 0.0 3.2 0.00 0.00 0.00 82 1017.7
20260902065438 23 288 1.6 4.8 0.00 0.00 0.00 82 1017.7
20260902064422 22 300 3.2 4.8 0.00 0.00 0.00 83 1017.6
20260902063923 22 292 1.6 4.8 0.00 0.00 0.00 82 1017.6
20260902063437 22 263 1.6 4.8 0.00 0.00 0.00 83 1017.6
20260902062924 22 273 3.2 4.8 0.00 0.00 0.00 83 1017.6
20260902061424 21 263 0.0 3.2 0.00 0.00 0.00 86 1017.5
20260902060924 21 263 1.6 4.8 0.00 0.00 0.00 86 1017.5
20260902055922 20 262 1.6 4.8 0.00 0.00 0.00 87 1017.4
20260902055422 20 264 3.2 4.8 0.00 0.00 0.00 88 1017.4
20260902054922 20 343 0.0 4.8 0.00 0.00 0.00 88 1017.4
20260902054422 20 343 1.6 3.2 0.00 0.00 0.00 89 1017.4
20260902053923 20 343 1.6 3.2 0.00 0.00 0.00 89 1017.3
20260902053422 20 343 0.0 0.0 0.00 0.00 0.00 90 1017.2
20260902052422 19 343 0.0 0.0 0.00 0.00 0.00 90 1017.1
20260902051922 19 343 0.0 0.0 0.00 0.00 0.00 91 1017.1
20260902051422 18 344 0.0 0.0 0.00 0.00 0.00 91 1017.1
20260902050922 18 258 0.0 0.0 0.00 0.00 0.00 91 1017.1
20260902050422 18 258 0.0 0.0 0.00 0.00 0.00 91 1017.0
20260902045925 18 246 0.0 0.0 0.00 0.00 0.00 91 1016.9
20260902045422 18 213 0.0 0.0 0.00 0.00 0.00 91 1016.9
20260902044922 19 213 0.0 0.0 0.00 0.00 0.00 90 1016.8
20260902043922 19 213 0.0 0.0 0.00 0.00 0.00 90 1016.9
20260902043422 19 213 0.0 0.0 0.00 0.00 0.00 90 1016.9
20260902042922 18 213 0.0 0.0 0.00 0.00 0.00 90 1016.9
20260902042425 18 213 0.0 0.0 0.00 0.00 0.00 90 1016.9
20260902041922 19 213 0.0 0.0 0.00 0.00 0.00 90 1016.9
20260902041421 18 213 0.0 0.0 0.00 0.00 0.00 90 1016.8
20260902040922 18 213 0.0 0.0 0.00 0.00 0.00 89 1016.9
20260902040422 19 213 0.0 0.0 0.00 0.00 0.00 89 1016.9
20260902035923 19 213 0.0 0.0 0.00 0.00 0.00 89 1016.9
20260902035422 19 213 0.0 0.0 0.00 0.00 0.00 89 1016.8
20260902034923 19 213 0.0 0.0 0.00 0.00 0.00 89 1016.8
20260902034421 19 213 0.0 0.0 0.00 0.00 0.00 89 1016.7
20260902033921 19 213 0.0 0.0 0.00 0.00 0.00 89 1016.8
20260902033422 19 213 0.0 0.0 0.00 0.00 0.00 89 1016.8
20260902032924 19 57 0.0 0.0 0.00 0.00 0.00 88 1016.8
20260902032422 20 57 0.0 0.0 0.00 0.00 0.00 88 1016.7
20260902031922 20 57 0.0 0.0 0.00 0.00 0.00 87 1016.8
20260902031422 20 57 0.0 3.2 0.00 0.00 0.00 88 1016.8
20260902030937 20 57 1.6 3.2 0.00 0.00 0.00 88 1016.8
20260902030423 20 57 0.0 0.0 0.00 0.00 0.00 88 1016.7
20260902025929 20 57 0.0 1.6 0.00 0.00 0.00 87 1016.7
20260902025421 20 57 0.0 0.0 0.00 0.00 0.00 87 1016.7
20260902024921 20 57 0.0 0.0 0.00 0.00 0.00 87 1016.7
20260902024422 20 57 0.0 0.0 0.00 0.00 0.00 87 1016.7
20260902023921 20 57 0.0 3.2 0.00 0.00 0.00 87 1016.7
20260902023422 20 57 0.0 0.0 0.00 0.00 0.00 86 1016.7
20260902022925 20 57 0.0 3.2 0.00 0.00 0.00 86 1016.7
20260902022421 20 57 0.0 3.2 0.00 0.00 0.00 86 1016.7
20260902021922 20 57 0.0 1.6 0.00 0.00 0.00 86 1016.7
20260902020922 20 57 0.0 3.2 0.00 0.00 0.00 86 1016.8
20260902020423 20 57 1.6 3.2 0.00 0.00 0.00 86 1016.7
20260902015922 20 57 1.6 3.2 0.00 0.00 0.00 86 1016.7
20260902015421 20 57 1.6 3.2 0.00 0.00 0.00 86 1016.7
20260902014923 20 57 0.0 3.2 0.00 0.00 0.00 86 1016.7
20260902013922 20 57 0.0 0.0 0.00 0.00 0.00 85 1016.7
20260902012921 20 57 0.0 0.0 0.00 0.00 0.00 85 1016.7
20260902012422 20 57 1.6 3.2 0.00 0.00 0.00 85 1016.7
20260902011922 20 57 0.0 3.2 0.00 0.00 0.00 85 1016.7
20260902011422 20 57 0.0 0.0 0.00 0.00 0.00 84 1016.6
20260902010922 21 57 0.0 0.0 0.00 0.00 0.00 83 1016.7
20260902005921 21 57 3.2 4.8 0.00 0.00 0.00 83 1016.6
20260902005428 21 57 1.6 3.2 0.00 0.00 0.00 83 1016.6
20260902004921 21 57 1.6 3.2 0.00 0.00 0.00 83 1016.6
20260902004422 21 57 0.0 0.0 0.00 0.00 0.00 83 1016.6
20260902003424 21 57 1.6 3.2 0.00 0.00 0.00 82 1016.6
20260902002923 21 57 3.2 4.8 0.00 0.00 0.00 82 1016.6
20260902002421 21 57 1.6 4.8 0.00 0.00 0.00 81 1016.5
20260902001922 21 57 0.0 1.6 0.00 0.00 0.00 81 1016.5
20260902000921 21 57 1.6 4.8 0.00 0.00 0.00 81 1016.6
20260902000421 21 57 1.6 3.2 0.00 0.00 0.00 80 1016.7
20260901235420 21 57 4.8 4.8 0.00 0.00 0.00 81 1016.7
20260901234439 21 57 0.0 3.2 0.00 0.00 0.00 80 1016.6
20260901233421 21 59 3.2 4.8 0.00 0.00 0.00 82 1016.6
20260901231921 21 92 1.6 4.8 0.00 0.00 0.00 81 1016.6
20260901231422 21 92 3.2 8.0 0.00 0.00 0.00 81 1016.6
20260901230921 21 92 3.2 4.8 0.00 0.00 0.00 81 1016.5
20260901225420 21 88 3.2 8.0 0.00 0.00 0.00 82 1016.5
20260901224920 21 88 3.2 8.0 0.00 0.00 0.00 82 1016.5
20260901224421 21 80 3.2 8.0 0.00 0.00 0.00 82 1016.5
20260901223921 21 80 3.2 4.8 0.00 0.00 0.00 81 1016.5
20260901223422 22 67 3.2 4.8 0.00 0.00 0.00 80 1016.5
20260901222922 22 62 3.2 4.8 0.00 0.00 0.00 81 1016.6
20260901222422 22 40 3.2 4.8 0.00 0.00 0.00 80 1016.5
20260901221921 22 40 3.2 4.8 0.00 0.00 0.00 80 1016.5
20260901221421 22 38 3.2 4.8 0.00 0.00 0.00 79 1016.5
20260901220921 22 58 4.8 4.8 0.00 0.00 0.00 79 1016.5
20260901220422 22 43 4.8 8.0 0.00 0.00 0.00 79 1016.4
20260901215921 22 44 3.2 4.8 0.00 0.00 0.00 78 1016.4
20260901215436 22 44 4.8 8.0 0.00 0.00 0.00 79 1016.5
20260901214920 22 30 1.6 4.8 0.00 0.00 0.00 79 1016.5
20260901213421 22 71 1.6 4.8 0.00 0.00 0.00 78 1016.4
20260901212925 22 71 1.6 3.2 0.00 0.00 0.00 77 1016.4
20260901212424 22 71 3.2 4.8 0.00 0.00 0.00 78 1016.4
20260901211921 23 96 0.0 0.0 0.00 0.00 0.00 78 1016.4
20260901210922 23 96 1.6 3.2 0.00 0.00 0.00 77 1016.4
20260901210437 23 96 0.0 3.2 0.00 0.00 0.00 77 1016.4
20260901205423 23 96 1.6 3.2 0.00 0.00 0.00 76 1016.4
20260901204920 23 95 1.6 4.8 0.00 0.00 0.00 77 1016.4
20260901204422 23 86 1.6 4.8 0.00 0.00 0.00 77 1016.4
20260901203422 23 122 1.6 3.2 0.00 0.00 0.00 76 1016.4
20260901202921 23 122 3.2 4.8 0.00 0.00 0.00 75 1016.3
20260901202421 23 94 3.2 4.8 0.00 0.00 0.00 75 1016.3
20260901201920 23 84 1.6 3.2 0.00 0.00 0.00 76 1016.2
20260901201421 23 84 1.6 4.8 0.00 0.00 0.00 76 1016.3
20260901200420 24 84 3.2 4.8 0.00 0.00 0.00 75 1016.2
20260901195921 24 98 1.6 4.8 0.00 0.00 0.00 75 1016.2
20260901195420 24 107 1.6 3.2 0.00 0.00 0.00 74 1016.2
20260901194920 24 107 1.6 4.8 0.00 0.00 0.00 73 1016.2
20260901194420 25 107 3.2 4.8 0.00 0.00 0.00 72 1016.1
20260901193920 25 93 3.2 8.0 0.00 0.00 0.00 71 1016.1
20260901193420 25 96 4.8 9.7 0.00 0.00 0.00 71 1016.0
20260901192921 25 78 3.2 8.0 0.00 0.00 0.00 71 1016.0
20260901192420 25 85 3.2 4.8 0.00 0.00 0.00 71 1016.0
20260901191920 25 72 4.8 8.0 0.00 0.00 0.00 71 1016.0
20260901190921 25 90 4.8 8.0 0.00 0.00 0.00 70 1015.9
20260901190420 25 95 4.8 11.3 0.00 0.00 0.00 70 1015.8
20260901185920 25 85 6.4 11.3 0.00 0.00 0.00 70 1015.8
20260901184920 25 89 4.8 9.7 0.00 0.00 0.00 69 1015.7
20260901184420 25 88 3.2 8.0 0.00 0.00 0.00 69 1015.6
20260901183921 26 69 4.8 8.0 0.00 0.00 0.00 67 1015.6
20260901183422 26 70 4.8 4.8 0.00 0.00 0.00 67 1015.6
20260901182920 26 71 4.8 11.3 0.00 0.00 0.00 67 1015.6
20260901181920 26 63 8.0 11.3 0.00 0.00 0.00 66 1015.4
20260901181419 26 68 6.4 11.3 0.00 0.00 0.00 66 1015.3
20260901180920 26 66 4.8 11.3 0.00 0.00 0.00 66 1015.2
20260901180420 26 68 6.4 11.3 0.00 0.00 0.00 65 1015.2
20260901175420 26 69 6.4 11.3 0.00 0.00 0.00 65 1015.1
20260901174421 27 59 8.0 9.7 0.00 0.00 0.00 65 1015.1
20260901173919 27 71 4.8 9.7 0.00 0.00 0.00 65 1015.2
20260901173420 27 84 8.0 12.9 0.00 0.00 0.00 65 1015.1
20260901172920 27 79 6.4 12.9 0.00 0.00 0.00 64 1015.0
20260901172421 27 78 4.8 11.3 0.00 0.00 0.00 64 1015.1
20260901171920 27 68 4.8 9.7 0.00 0.00 0.00 64 1015.0
20260901171422 27 79 6.4 11.3 0.00 0.00 0.00 64 1014.9
20260901170924 28 79 4.8 14.5 0.00 0.00 0.00 64 1014.9
20260901170422 28 94 6.4 11.3 0.00 0.00 0.00 64 1014.8
20260901165435 28 82 11.3 16.1 0.00 0.00 0.00 63 1014.9
20260901164920 28 95 9.7 14.5 0.00 0.00 0.00 64 1014.9
20260901163419 28 85 6.4 14.5 0.00 0.00 0.00 65 1014.9
20260901162919 29 86 8.0 14.5 0.00 0.00 0.00 64 1015.0
20260901162419 29 75 9.7 19.3 0.00 0.00 0.00 64 1015.0
20260901161919 29 105 12.9 19.3 0.00 0.00 0.00 63 1015.0
20260901161419 29 94 9.7 19.3 0.00 0.00 0.00 63 1014.9
20260901160419 29 96 11.3 19.3 0.00 0.00 0.00 63 1014.9
20260901155923 30 80 9.7 19.3 0.00 0.00 0.00 63 1014.9
20260901155419 29 82 14.5 20.9 0.00 0.00 0.00 63 1015.0
20260901154919 30 86 11.3 20.9 0.00 0.00 0.00 62 1015.0
20260901154420 30 82 9.7 19.3 0.00 0.00 0.00 63 1015.0
20260901153919 30 94 4.8 19.3 0.00 0.00 0.00 62 1015.1
20260901153420 30 73 9.7 16.1 0.00 0.00 0.00 61 1015.0